Location: *
(49.5667°N, 1.3667°W)
Time: 22:15:42
(UTC+00:00)

RESURS DK-1 - Pass Details

Date: 20 September 2019
Orbit: 558 x 560 km, 69.9° (Epoch: 21 October)

Event Time Altitude Azimuth Distance (km) Brightness Sun altitude
Rises 21:01:27 0° 327° (NNW) 2,757 7.0 -26.8°
Reaches altitude 10° 21:03:41 10° 325° (NW) 1,857 5.9 -27.1°
Enters shadow 21:06:41 45° 307° (NW) 774 3.4 -27.5°
